Location: La Sioule Rivi�re
(46.3664°N, 3.3197°E)
Time: 11:59:17
(UTC+00:00)

Cosmos 44 - Pass Details

Date: 29 October 2020
Orbit: 578 x 784 km, 65.1° (Epoch: 23 November)

Event Time Altitude Azimuth Distance (km) Brightness Sun altitude
Rises 17:20:21 0° 222° (SW) 2,861 7.4 -8.2°
Reaches altitude 10° 17:22:34 10° 225° (SW) 1,986 6.6 -8.6°
Maximum altitude 17:27:02 67° 309° (NW) 705 3.5 -9.3°
Drops below altitude 10° 17:31:50 10° 32° (NNE) 2,127 5.4 -10.2°
Enters shadow 17:33:24 - 34° (NE) 2,740 6.0 -10.4°
